Wind_Gust
16 21 17 19 18 20 21 20 22 29 30 31 30 30 37 32 35 37 28 15 24 18 16 12 12 12 20 22 26 28 29 25 23 17 15 25 17 18 21 24 25 24 26 24 24 25 24 18 18 17 19 21 20 20 20 21 21 21 21 21 20 20 19 18 18 18 18 18 17 16 16 16 14 15 14 13 16 15 14 16 16 17 18 18 19 20 20 20 20 19 19 19 18 17 17 17 16
22 19 18 15 19 21 23 21 30 25 28 28 30 29 32 33 29 31 28 23 18 20 10 12 13 9 11 12 29 31 31 29 26 29 26 21 21 20 22 22 22 25 24 24 24 24 23 23 16 18 19 20 20 20 20 21 20 21 21 21 20 19 19 18 18 18 18 17 17 18 18 16 14 15 14 14 15 14 15 16 17 17 17 18 19 20 19 19 19 19 19 18 17 17 17 16 15
21 19 19 18 21 23 23 21 30 26 30 31 28 30 29 31 28 20 23 19 19 13 11 12 13 13 15 12 18 25 27 25 28 25 26 21 23 19 19 22 22 25 24 23 25 25 22 23 16 18 18 20 20 20 20 21 20 21 21 20 19 19 19 18 19 18 18 17 18 19 18 17 15 15 14 14 14 14 14 15 17 18 18 17 18 19 19 19 18 18 18 17 17 17 16 15 14
20 21 21 16 23 21 23 25 26 29 29 28 27 24 28 26 25 17 23 19 12 12 13 18 22 13 20 20 31 27 24 27 23 22 28 20 20 21 22 21 23 24 22 24 25 25 23 22 16 18 18 19 21 21 20 21 21 21 22 21 20 19 19 18 19 19 18 18 18 18 17 15 14 14 13 14 15 15 15 17 17 17 17 16 17 17 18 17 17 17 16 16 17 16 16 15 13
20 19 19 21 22 24 26 27 26 27 30 27 28 22 19 15 19 18 14 12 13 14 18 16 15 18 25 24 22 27 24 25 23 20 29 21 20 20 21 22 24 24 23 24 24 24 25 21 17 18 18 20 21 21 21 20 21 22 21 21 20 20 19 19 19 18 19 19 18 17 16 14 15 15 16 17 16 16 16 16 16 17 17 16 15 15 14 12 14 14 14 16 17 16 15 13 12
20 20 17 20 26 25 26 25 27 28 26 27 30 26 21 19 20 11 13 14 12 11 15 20 18 24 23 22 26 24 18 16 22 20 24 21 20 19 20 21 22 24 24 24 24 23 26 23 19 18 17 18 19 21 21 21 22 21 21 21 20 20 19 19 19 19 19 19 18 17 15 14 16 17 17 17 17 17 17 17 17 17 17 17 17 15 14 14 13 12 13 14 15 16 14 13 12
22 19 22 20 27 25 24 26 26 26 27 27 32 28 18 14 14 12 12 15 13 17 12 19 13 30 25 28 28 26 21 17 21 25 19 21 20 20 21 20 20 23 23 24 23 25 29 22 18 19 19 21 21 21 22 22 22 22 22 21 21 20 20 19 17 18 20 18 17 16 15 14 16 17 18 18 18 18 19 18 18 17 17 16 15 14 13 13 12 13 12 14 16 15 13 12 11
18 25 21 23 23 25 27 27 28 27 26 26 25 27 12 13 15 14 12 16 24 23 20 17 16 15 21 20 27 18 25 30 27 26 24 22 21 20 19 20 21 22 22 21 21 24 25 19 19 18 21 21 22 23 23 23 22 21 21 21 20 20 20 20 19 17 17 17 17 16 15 15 18 19 18 19 20 19 19 19 18 17 15 14 13 13 13 13 14 14 13 15 15 15 13 13 11
20 24 17 23 25 26 25 28 28 26 32 25 18 15 12 14 10 11 14 19 17 20 26 17 14 20 27 28 27 20 25 23 23 23 21 21 20 19 21 21 22 22 21 22 23 26 25 18 17 19 21 22 21 22 22 22 21 20 21 21 20 20 20 20 20 18 17 15 16 17 18 18 19 20 19 19 20 18 18 19 17 16 15 14 13 12 12 13 14 15 15 15 15 14 14 12 10
22 23 21 24 20 26 25 25 27 26 32 23 17 21 20 21 18 15 16 20 15 15 19 18 17 19 30 25 26 18 21 18 20 21 19 18 19 18 17 20 19 21 22 24 24 25 23 22 16 17 18 20 21 20 19 18 20 20 20 20 18 19 19 18 17 18 17 17 16 16 17 17 19 19 19 19 19 17 17 16 16 15 14 13 12 12 12 13 14 15 15 15 15 14 14 12 10
26 25 21 24 24 25 26 24 25 23 25 24 16 13 12 15 17 17 17 19 20 19 17 18 19 26 23 25 23 18 18 18 19 20 17 17 17 18 19 19 20 21 24 22 23 24 25 25 21 16 16 17 17 17 17 18 17 17 17 18 17 19 19 18 18 18 16 16 16 17 17 16 17 17 18 18 18 16 16 16 16 14 13 13 11 10 11 12 14 15 15 14 14 13 13 11 9
25 23 23 24 24 24 23 26 23 24 23 21 20 15 16 18 16 17 18 22 17 21 21 18 24 32 22 22 18 18 19 16 17 17 17 17 20 19 18 21 19 20 21 23 23 23 24 24 24 20 15 15 15 17 17 17 16 16 17 18 18 18 18 17 18 16 17 15 16 16 15 15 15 16 16 16 16 15 14 15 14 13 12 11 10 9 11 12 14 14 14 14 14 13 13 11 8
26 21 22 25 24 24 24 25 25 21 14 20 23 23 12 17 18 18 18 21 21 20 20 25 13 29 25 21 22 19 19 14 15 17 17 18 20 21 17 20 21 19 21 22 23 23 23 23 23 23 20 16 13 13 15 14 14 15 15 16 17 16 16 19 19 18 16 14 13 14 15 14 14 14 15 16 16 15 14 13 13 13 11 10 9 9 10 12 13 14 15 14 14 14 13 11 9
27 22 21 25 22 27 27 24 23 20 25 21 19 20 16 19 21 21 20 24 21 22 21 21 37 34 25 25 19 20 19 15 15 16 19 19 19 20 19 19 20 19 20 21 23 24 22 22 22 21 22 21 20 16 11 12 12 12 14 15 16 14 15 16 16 16 14 13 11 12 13 13 14 13 14 14 15 13 11 13 12 12 12 9 8 8 10 12 13 14 15 14 14 14 13 11 9
26 19 22 24 27 23 22 28 19 20 25 23 25 16 15 19 17 19 20 21 21 17 24 26 21 22 27 20 19 21 22 18 18 18 19 21 21 21 18 18 18 17 19 20 23 23 22 21 23 21 19 19 20 18 19 17 12 12 13 14 15 13 13 13 13 12 13 13 13 12 12 13 13 13 13 13 12 11 12 12 10 10 12 10 8 8 10 11 13 14 15 15 14 14 13 11 9
23 23 23 24 25 24 23 26 24 23 25 15 20 17 19 18 17 20 24 20 25 20 22 28 30 29 20 22 24 29 26 21 19 19 22 22 23 21 21 18 16 18 17 18 22 19 20 21 20 21 20 17 17 16 16 18 14 12 13 13 14 13 12 11 11 11 12 12 13 11 10 14 13 15 14 16 13 11 12 13 11 11 11 11 8 8 10 11 12 14 15 15 15 14 13 11 9
19 20 22 24 26 22 22 23 18 28 23 18 15 17 25 23 18 23 17 16 18 23 30 32 26 21 25 30 33 32 27 21 20 21 22 23 24 25 20 19 18 19 16 17 17 19 17 19 19 20 18 18 17 15 15 17 18 14 13 12 14 13 13 12 11 12 11 12 13 9 8 16 17 17 17 18 15 17 10 12 13 12 12 12 11 10 10 11 12 14 14 15 15 15 13 12 9
20 25 23 24 24 23 20 25 21 19 16 17 14 15 18 21 21 22 21 18 16 23 25 27 25 25 25 27 29 28 26 22 21 22 23 22 21 23 23 19 20 20 19 18 16 19 18 17 16 14 17 14 12 14 16 16 18 18 18 18 18 16 13 12 15 17 14 16 9 15 16 17 17 16 16 13 16 16 16 14 14 14 12 12 12 12 10 11 12 13 14 14 15 15 16 18 13
24 22 25 25 23 23 22 16 18 16 18 11 17 10 13 19 24 23 26 22 20 22 24 25 25 24 22 24 26 26 24 21 21 19 21 20 20 22 21 21 19 19 19 20 19 17 17 18 15 14 14 12 13 11 16 17 18 18 19 18 17 14 16 17 18 18 17 18 16 17 16 15 15 15 16 16 16 13 17 14 16 15 12 12 12 12 12 11 12 13 14 14 14 16 21 16 16
24 24 25 27 24 23 16 14 14 19 12 13 16 16 14 18 26 26 26 23 20 23 28 27 25 24 25 25 24 24 22 21 20 18 18 19 19 18 18 19 18 18 20 20 21 18 17 17 17 15 15 15 14 12 11 13 18 17 17 18 13 15 16 17 14 13 12 12 17 15 10 10 11 11 11 16 14 18 18 12 15 16 14 12 13 12 13 11 12 13 13 13 11 14 17 16 17
21 28 27 25 22 25 16 15 13 11 9 14 11 14 15 19 13 24 20 24 22 22 26 25 28 26 26 25 25 23 23 20 19 17 16 16 19 19 18 20 21 18 18 19 20 19 17 17 18 16 15 15 13 13 11 11 14 14 15 10 14 14 13 11 12 10 9 9 14 9 7 9 10 9 10 13 17 17 17 19 20 20 18 17 13 16 15 17 15 18 17 17 18 18 19 14 15
20 25 25 29 23 18 17 16 19 12 9 11 9 21 21 20 15 22 20 21 23 22 20 25 33 31 27 28 26 25 23 21 19 18 16 15 18 16 16 18 16 17 17 22 19 17 18 17 16 16 17 14 12 13 14 12 15 15 12 12 11 14 15 11 13 16 12 11 13 9 7 9 9 8 9 12 14 16 17 18 20 19 19 18 19 17 18 17 16 17 17 20 19 17 17 13 12
27 21 24 26 26 21 17 15 14 13 19 19 17 16 14 18 22 22 23 17 17 24 21 34 28 29 26 26 27 24 22 21 18 17 16 14 13 15 16 20 19 20 19 20 17 19 19 17 18 17 17 17 13 12 13 14 15 15 11 11 14 14 13 13 14 14 14 12 12 9 10 13 10 8 7 11 16 15 16 17 19 18 19 19 19 18 17 17 18 18 18 19 19 18 16 15 12
25 28 20 23 23 22 19 16 16 19 20 17 21 17 19 17 21 24 25 15 24 34 34 31 30 25 26 28 24 24 23 20 18 15 15 14 13 17 15 14 18 16 19 21 20 19 19 19 18 16 17 16 16 14 17 16 12 13 12 15 16 13 14 15 16 12 12 15 11 13 9 14 12 7 6 8 8 18 18 16 16 18 18 19 18 17 17 17 18 17 17 18 20 18 16 14 15
28 32 22 21 21 22 19 15 15 18 20 20 11 15 19 19 22 26 22 17 19 35 32 29 25 26 23 24 24 22 21 20 17 15 13 14 13 14 15 16 18 19 20 18 19 21 19 18 19 18 16 15 16 18 17 16 15 15 16 12 14 12 15 13 11 11 11 11 12 10 11 10 11 11 10 9 9 10 18 18 20 19 16 17 18 18 18 19 19 18 18 18 17 17 15 14 13
28 24 23 23 21 19 21 17 18 19 20 19 18 20 18 22 16 26 23 18 21 29 31 29 23 22 25 22 21 20 20 19 18 15 14 13 14 14 15 18 19 17 19 20 19 19 17 16 18 18 19 20 17 15 14 14 14 15 14 14 15 15 10 11 10 11 11 13 11 12 14 12 11 11 12 12 13 12 18 14 16 21 22 19 18 19 20 20 19 17 17 18 18 17 17 17 13
23 26 25 25 22 19 18 21 22 20 21 20 22 21 21 17 21 24 23 19 20 27 26 29 26 23 23 22 21 18 20 19 19 16 15 13 14 14 13 15 19 19 20 18 18 18 17 17 17 17 16 15 15 15 14 12 13 14 15 13 13 13 14 12 11 10 9 11 13 13 13 12 15 11 12 11 12 11 10 10 14 17 19 18 19 20 22 16 16 16 16 18 18 18 17 17 15
28 21 22 26 25 21 19 21 23 25 28 21 23 22 21 19 25 23 21 21 20 23 26 27 27 24 25 22 22 20 19 19 21 15 16 14 16 15 14 15 17 19 20 17 18 19 18 16 17 16 15 16 14 15 16 16 14 14 12 13 14 13 13 12 15 16 16 17 17 16 12 14 15 16 14 13 13 13 12 11 11 13 15 14 17 19 18 15 15 15 16 16 15 16 16 17 15
25 19 22 22 25 33 22 24 25 25 28 25 21 23 25 26 28 27 25 23 21 23 26 29 29 27 26 26 22 21 20 20 19 18 15 14 13 14 14 13 17 19 18 17 19 18 17 17 17 16 15 14 13 16 13 14 14 13 12 12 12 15 15 14 15 13 13 13 16 22 13 12 13 14 15 15 13 13 13 12 9 11 11 13 17 20 19 16 15 15 15 15 16 18 16 16 17
23 22 23 22 27 30 25 23 24 24 25 28 26 31 26 27 27 31 25 25 23 23 26 30 27 27 27 24 23 23 20 19 19 18 17 15 13 14 14 13 12 19 19 18 17 17 16 18 19 16 16 14 16 15 13 13 12 12 12 13 12 13 15 16 13 11 14 13 16 18 11 13 14 14 15 14 12 13 16 17 11 11 13 12 12 17 13 13 16 17 18 19 15 18 18 17 17
30 23 23 28 28 32 28 32 27 29 26 27 27 29 27 28 31 32 26 24 24 24 23 25 25 27 25 24 21 21 19 19 18 18 15 13 13 14 14 13 12 15 19 16 16 17 17 15 15 16 18 13 14 13 13 12 12 9 10 11 15 13 13 14 15 11 12 14 20 19 12 13 14 14 14 13 12 13 18 14 14 13 11 8 8 9 12 15 15 16 18 20 19 18 18 18 18
27 30 31 28 30 24 29 31 32 35 30 27 27 31 26 31 32 32 25 25 24 24 22 22 25 24 23 23 22 23 20 19 18 18 16 14 13 15 15 15 13 11 14 15 14 14 15 14 14 13 15 13 11 13 10 14 13 11 11 11 9 9 10 14 14 13 16 16 15 15 12 12 12 14 15 16 13 12 15 15 12 12 10 8 8 8 8 12 12 14 17 19 19 22 20 21 20
29 30 22 29 28 27 30 33 31 32 32 27 30 30 31 33 33 31 26 26 25 24 23 21 23 26 25 24 23 22 23 21 20 20 17 15 13 14 14 15 15 13 12 12 12 13 12 14 15 14 14 15 12 13 11 11 11 12 11 11 10 10 11 14 16 14 18 13 12 14 14 13 14 14 15 15 13 14 13 14 13 12 10 11 8 9 9 9 9 15 18 19 18 22 25 19 16
30 30 29 24 28 31 32 32 31 33 31 30 32 36 31 24 32 31 27 25 26 24 23 24 23 23 25 24 25 23 23 22 22 20 17 15 15 14 14 14 14 13 12 11 11 12 13 11 10 8 14 15 12 13 12 11 12 12 11 10 8 9 8 11 15 16 21 16 16 13 13 14 13 14 14 14 13 14 14 12 11 12 10 8 9 8 10 10 8 13 15 21 22 21 22 20 19
27 28 28 28 29 30 28 36 33 33 34 28 30 35 36 29 30 30 27 24 25 23 25 25 22 22 24 26 24 24 23 20 21 20 17 16 16 14 15 15 15 14 13 12 11 12 12 12 9 8 9 11 13 11 10 10 10 9 10 8 9 10 10 11 11 13 19 16 13 12 13 11 12 12 14 14 13 15 14 13 12 11 10 9 10 11 10 10 9 12 12 20 20 21 14 18 13
25 26 27 27 28 31 34 31 30 35 35 32 30 38 37 34 31 29 26 25 24 22 23 24 21 22 24 24 25 22 20 22 22 19 17 16 15 15 15 16 15 14 14 14 12 12 12 12 11 9 8 8 8 8 10 9 10 10 10 9 9 11 12 12 12 12 11 12 11 13 13 13 12 13 14 14 13 14 13 13 12 12 11 10 13 14 15 13 13 12 13 12 13 15 15 13 14
23 24 26 30 28 26 28 29 29 35 35 32 29 33 36 30 25 27 25 23 22 23 24 21 22 21 26 29 28 27 24 20 18 20 16 15 16 16 15 15 15 15 15 14 13 12 13 13 11 10 9 8 7 8 8 8 9 9 10 11 11 10 13 12 12 11 12 11 11 12 12 13 12 13 14 14 13 12 13 14 14 13 13 14 15 14 14 12 11 10 10 9 11 13 14 14 15
28 24 26 30 28 27 27 27 34 35 32 30 27 31 35 30 26 27 22 23 24 24 24 19 21 21 24 30 31 30 22 17 16 17 16 13 17 14 14 15 14 15 13 12 12 12 11 10 10 10 9 7 5 5 6 8 8 10 9 8 8 10 14 13 13 11 11 11 12 11 11 12 12 12 12 12 10 11 12 14 13 15 16 17 18 15 15 15 14 13 12 12 11 15 16 15 15
31 30 26 29 29 26 23 28 27 33 31 28 29 29 33 33 26 27 23 24 24 24 21 21 21 21 27 35 33 29 22 22 18 18 15 17 17 15 13 13 14 13 12 12 11 12 10 10 11 9 6 7 8 6 8 8 7 7 7 8 11 12 10 12 11 10 10 11 12 12 12 12 14 14 15 14 16 13 14 14 15 15 15 15 15 15 17 17 15 15 16 17 18 16 21 15 16
29 28 26 30 25 30 32 28 25 28 32 26 32 29 33 31 24 22 22 28 26 24 22 23 22 19 27 33 32 34 27 24 20 19 16 17 19 19 14 13 13 13 13 12 12 12 10 10 10 10 7 6 7 7 7 6 6 6 8 8 10 13 12 10 12 11 11 11 12 13 13 13 14 14 15 16 14 16 14 14 15 14 15 12 13 16 17 19 15 17 15 18 14 18 23 20 16
29 28 27 28 26 32 29 29 27 23 28 29 28 31 32 34 28 25 22 25 28 26 20 22 22 18 18 32 33 32 29 26 23 19 16 16 18 18 16 14 15 14 13 12 12 12 10 9 10 9 7 8 8 8 8 8 7 8 9 9 9 12 13 13 12 13 14 13 14 14 15 14 13 14 14 15 16 15 15 15 14 15 15 14 14 16 15 16 18 19 23 16 19 19 23 20 18
29 28 27 23 23 27 31 30 28 27 29 35 31 42 37 33 31 31 28 26 25 23 21 21 19 20 23 33 30 28 30 26 23 20 18 16 16 17 15 14 15 14 12 12 12 11 11 11 9 8 8 7 9 8 9 10 11 10 10 11 13 14 14 13 14 14 14 14 14 12 12 14 17 16 16 16 16 15 16 18 16 16 12 13 16 15 15 16 22 23 23 21 23 18 16 18 20
28 33 30 30 26 27 27 33 29 29 33 33 32 37 34 31 35 32 31 28 28 25 25 24 22 23 23 22 23 22 25 23 21 19 17 17 16 16 15 13 13 14 13 11 11 11 11 10 9 8 7 9 8 9 11 11 10 11 11 13 13 12 13 12 11 12 12 11 11 10 10 11 15 17 16 17 15 16 16 15 16 16 15 15 18 20 14 16 21 23 21 24 22 20 20 19 17
34 22 29 29 28 26 28 33 28 24 21 26 30 36 32 35 34 36 31 30 31 28 26 24 25 22 25 21 22 22 24 21 21 18 16 14 15 17 16 14 12 13 11 11 10 9 10 9 8 7 8 9 10 9 9 11 11 10 11 13 14 15 13 13 11 10 10 9 10 10 11 13 14 15 17 17 17 16 17 17 17 17 16 15 16 16 14 16 15 16 18 17 19 18 20 19 17
28 22 26 32 29 24 29 33 29 25 25 31 36 30 37 29 27 27 30 32 32 30 26 24 22 22 27 29 24 21 22 20 18 19 18 19 19 16 14 13 12 12 10 10 10 8 7 7 9 8 8 8 9 9 10 11 11 11 13 13 14 15 14 14 14 13 11 11 10 11 13 15 15 16 17 17 18 18 17 17 14 13 15 16 17 15 15 16 15 18 15 15 17 18 17 15 15
28 25 26 27 29 26 28 31 30 28 28 29 34 34 36 30 26 31 30 32 33 32 27 23 22 22 25 27 24 21 21 21 24 22 20 18 16 15 13 12 11 9 8 9 9 9 8 8 8 9 10 9 9 9 10 11 11 12 13 13 14 15 14 14 14 14 12 8 11 11 14 18 17 17 17 19 19 20 18 17 15 14 13 15 13 15 16 17 16 17 18 18 15 15 15 16 13
25 32 31 29 28 25 24 30 33 30 34 33 30 35 30 33 29 31 34 38 32 29 26 23 23 23 24 22 21 23 22 21 21 20 20 17 15 15 13 13 11 9 8 8 9 9 7 7 8 7 8 7 8 10 10 10 10 12 14 13 15 16 16 15 14 14 13 14 15 15 16 19 17 18 18 20 18 18 17 17 14 13 12 11 13 15 16 17 16 13 13 15 16 15 14 14 12
32 37 37 29 30 26 25 28 29 36 34 31 33 33 34 35 26 28 30 28 34 32 28 25 23 23 25 21 21 20 21 21 21 21 20 17 16 14 12 12 10 10 8 9 7 7 7 8 6 7 7 7 7 8 9 11 13 13 14 15 17 17 17 18 16 15 13 18 17 17 17 19 19 20 20 20 16 17 15 15 14 13 14 14 18 16 13 16 14 13 12 14 14 14 13 12 14
38 32 35 34 34 34 35 33 36 35 32 27 34 33 35 36 16 27 30 30 34 33 34 28 24 23 22 22 20 20 20 20 20 19 18 16 14 13 12 12 9 8 7 6 7 5 5 5 6 7 6 7 8 7 9 11 12 13 14 15 16 17 18 18 17 13 16 18 20 19 19 21 21 20 21 20 16 15 17 18 16 16 16 16 15 15 14 16 13 13 14 14 14 14 13 15 12
37 38 36 38 39 36 29 32 27 28 27 27 30 31 35 23 26 28 30 32 33 34 30 29 24 24 22 22 21 20 20 20 19 18 17 16 16 15 15 14 13 12 11 11 10 8 8 7 8 9 9 8 8 9 10 11 12 13 13 15 16 17 16 16 15 13 13 17 21 21 22 22 22 21 21 19 14 15 17 17 15 16 17 17 17 16 15 14 13 15 15 15 18 13 14 13 12
38 32 37 34 36 40 31 34 33 30 26 28 26 35 37 27 21 22 27 28 29 29 28 26 27 25 23 23 21 20 20 19 19 17 16 15 16 14 13 14 14 13 12 11 10 10 8 8 10 11 10 10 11 11 11 11 12 13 14 15 16 16 17 16 16 14 15 20 23 23 22 23 24 22 22 17 15 16 16 17 17 16 17 18 16 15 16 15 15 17 17 18 18 13 14 14 13
35 35 32 36 39 27 33 23 25 28 27 30 32 27 20 26 26 23 26 27 28 29 31 30 26 24 22 22 20 19 19 20 19 18 17 16 15 14 13 13 13 12 12 12 11 10 10 11 10 11 10 10 10 10 12 13 13 13 13 14 15 16 17 17 16 15 17 18 22 23 24 21 22 20 19 17 17 16 17 17 19 19 17 17 18 18 18 17 17 15 16 15 16 20 19 20 14
38 38 44 37 27 29 23 19 22 9 24 34 28 24 27 29 23 22 24 27 27 26 28 26 24 23 21 19 20 19 19 18 18 18 17 16 15 13 13 13 13 12 12 12 11 11 11 11 11 11 12 12 12 12 12 12 12 12 12 12 14 15 17 17 19 18 18 20 19 22 20 22 20 17 17 18 19 16 17 18 18 18 18 19 19 19 19 18 17 16 14 14 17 19 19 20 15
33 43 36 29 29 28 30 28 24 24 32 29 34 30 28 27 25 25 25 25 25 25 25 27 25 24 22 19 18 17 17 19 19 18 16 15 14 13 13 13 13 12 11 11 11 10 10 10 11 11 12 12 13 13 13 12 12 12 12 13 14 16 18 19 20 20 20 19 19 19 20 22 22 21 15 19 18 19 17 19 19 19 18 19 19 20 20 20 20 16 16 16 18 18 21 18 16
33 33 25 42 36 37 34 27 30 30 33 31 35 34 30 31 25 30 28 29 28 27 27 27 26 24 22 19 19 17 16 17 18 17 16 15 14 14 14 14 13 13 12 12 13 11 11 11 12 12 13 13 13 14 13 14 13 13 12 13 14 17 17 18 18 18 18 19 21 20 22 22 20 20 18 19 21 22 17 20 19 18 18 20 20 19 21 19 19 17 18 19 16 18 19 19 18
32 26 36 32 32 33 32 33 22 32 28 27 29 35 32 34 34 36 33 32 30 30 27 25 25 24 22 22 19 18 17 17 17 17 16 17 15 15 14 14 14 14 14 12 12 13 13 12 12 12 13 12 12 13 13 13 13 14 16 16 16 17 18 19 19 18 18 19 18 18 20 20 23 21 20 19 21 20 20 19 20 19 22 20 22 21 20 19 18 18 20 20 18 18 18 18 17
40 38 37 40 39 24 31 28 33 32 33 32 28 30 32 24 33 39 39 36 32 32 29 25 24 24 21 20 19 17 18 18 17 17 17 16 15 15 14 14 14 14 12 11 12 13 13 13 12 12 13 14 14 15 15 14 14 14 15 16 17 18 18 19 18 17 16 15 16 15 19 16 21 25 22 21 22 21 21 20 20 22 21 20 23 21 20 20 21 18 17 18 18 19 19 18 15
36 37 35 35 35 34 34 32 32 35 35 32 31 30 21 19 21 25 33 33 34 29 28 26 24 24 22 21 19 17 17 15 15 15 14 15 14 14 14 14 13 15 14 13 14 13 14 14 14 13 13 14 15 16 16 16 16 16 15 16 18 19 20 19 18 17 16 16 16 15 18 19 18 22 22 24 24 20 21 20 17 15 20 24 22 23 19 19 21 17 17 18 17 18 18 16 15
Wind_Speed
9 9 9 9 8 8 7 6 6 6 7 11 11 11 12 13 15 20 17 8 5 3 6 4 1 2 5 6 16 18 15 12 9 3 5 5 7 8 14 14 15 15 14 12 11 11 12 13 15 15 16 17 17 16 16 16 15 15 15 14 14 14 13 13 12 12 11 11 11 11 11 10 10 9 9 11 11 11 12 13 12 13 14 14 14 15 15 15 15 15 15 15 14 13 13 13 12
8 9 10 8 7 6 6 7 6 8 9 11 12 11 13 15 17 19 17 5 5 5 5 5 5 1 4 4 19 19 16 14 12 11 10 10 10 10 15 14 11 13 13 11 12 11 11 13 13 13 14 15 15 16 16 15 15 15 15 14 14 13 13 12 12 11 11 11 11 11 11 10 10 9 8 11 11 11 11 12 13 14 14 14 14 14 15 15 15 15 14 14 13 13 12 12 11
9 9 9 7 8 8 8 7 9 8 10 12 10 11 13 17 16 11 11 7 11 7 1 6 8 2 5 5 4 15 10 12 15 13 10 13 12 7 13 13 13 13 14 11 11 11 9 12 13 14 14 15 15 15 15 15 14 14 14 13 13 13 12 12 11 12 11 10 11 11 10 10 10 9 10 11 10 11 11 11 13 13 14 14 13 14 14 14 13 14 13 13 13 13 12 11 10
10 10 9 6 7 7 6 5 9 10 11 9 10 11 14 14 15 5 13 12 7 5 5 2 5 5 12 7 16 17 13 12 12 12 9 9 8 9 13 13 15 12 11 10 11 10 10 12 13 14 14 14 15 15 15 14 14 14 13 13 12 12 12 11 11 11 11 11 11 10 9 9 9 9 8 10 11 11 12 11 12 13 13 12 13 13 13 12 12 12 12 12 12 12 11 11 10
9 9 9 7 7 7 7 7 9 9 12 9 10 11 9 7 7 11 8 5 6 5 3 2 4 11 14 14 10 8 10 15 13 12 10 9 11 9 10 12 13 12 11 12 11 11 11 15 13 13 14 14 14 14 14 13 13 13 12 12 12 12 12 11 10 10 11 11 11 9 8 8 9 9 11 12 12 11 11 11 11 12 12 12 11 10 9 8 10 10 11 12 12 11 11 10 9
9 9 8 7 6 6 6 8 9 12 11 11 12 10 6 11 12 7 6 2 4 4 0 3 7 9 9 9 8 9 0 6 11 10 12 11 11 12 12 11 11 11 12 10 12 9 12 14 13 13 13 13 13 13 13 13 13 13 12 12 12 12 12 11 10 11 11 11 10 9 7 8 10 11 12 12 12 12 12 12 10 12 12 12 11 10 10 9 9 9 9 11 11 11 10 9 7
6 7 6 7 8 6 7 9 11 11 12 14 14 15 4 4 5 2 5 3 4 3 6 6 5 18 12 8 12 11 12 11 9 12 11 12 11 10 11 10 12 12 12 10 11 11 15 13 13 13 13 13 13 13 13 13 13 12 12 12 12 12 12 11 9 10 12 10 9 8 8 9 11 12 12 12 12 12 11 11 12 11 11 10 9 9 8 8 8 8 9 11 11 11 10 8 5
9 9 5 7 7 6 10 10 12 11 11 14 15 17 3 2 9 2 4 1 7 8 10 10 4 4 12 11 11 9 17 17 16 16 16 11 12 10 8 8 11 12 12 10 9 11 16 12 13 12 13 13 14 13 13 13 12 12 12 12 11 11 11 11 9 8 8 8 9 8 8 10 11 12 12 12 12 12 11 11 11 11 9 9 8 8 8 8 8 8 10 11 10 10 10 7 4
8 8 6 8 9 6 9 11 11 13 16 15 10 6 7 8 2 3 5 2 6 7 11 10 6 6 10 16 12 10 11 15 15 16 13 12 12 11 7 9 11 10 10 11 12 13 13 12 12 13 13 14 13 14 13 13 12 12 11 11 11 11 10 10 10 8 7 6 7 8 9 10 10 11 11 11 11 10 11 11 9 9 9 9 8 8 8 8 8 9 10 11 10 11 9 7 3
7 7 7 7 6 11 11 10 11 11 15 14 9 13 9 10 6 3 7 6 1 5 10 8 8 10 15 15 11 9 9 11 13 14 12 10 10 9 8 8 9 11 13 13 12 13 11 15 12 12 12 13 13 13 12 12 12 11 11 11 9 10 9 8 7 7 6 6 6 7 7 9 9 9 10 11 11 10 10 9 9 8 7 8 8 8 8 8 8 9 10 10 10 10 9 6 3
7 7 7 8 9 10 10 10 11 11 14 13 5 7 7 1 8 9 9 11 8 7 7 9 8 17 14 12 9 8 10 12 12 12 11 10 9 9 9 8 10 11 13 13 12 12 12 12 15 12 11 11 12 11 11 10 10 9 10 10 10 10 9 6 7 7 6 6 7 8 8 10 10 9 9 10 10 10 9 9 8 6 7 8 8 8 7 8 8 8 8 9 10 10 8 7 3
8 8 7 8 9 9 10 10 12 11 14 12 9 7 7 6 2 7 7 10 9 8 10 9 5 18 12 10 6 9 12 10 10 10 10 11 10 10 9 9 10 12 13 13 13 12 13 11 11 13 11 11 11 12 12 10 9 10 11 10 8 8 7 7 6 6 6 5 7 9 8 10 11 9 7 8 9 9 9 7 6 5 6 7 8 7 7 7 8 7 7 8 9 9 8 6 3
9 7 9 8 9 9 11 13 12 12 7 9 1 8 6 8 8 8 7 11 5 7 9 11 3 17 11 10 9 11 12 9 9 10 10 10 10 10 9 10 10 11 12 12 13 13 11 11 10 10 11 13 11 10 11 11 9 9 9 8 9 8 8 7 7 6 5 8 9 8 9 10 10 9 9 8 8 7 7 6 5 4 6 7 7 7 6 6 7 6 6 7 8 8 7 6 4
9 8 8 9 9 11 12 11 11 5 8 2 7 10 6 3 5 7 8 9 7 11 7 12 18 19 15 11 6 9 9 8 9 9 10 11 9 10 11 11 10 11 12 12 13 13 11 10 9 9 11 10 10 10 10 10 10 9 9 9 9 8 8 7 7 6 6 8 9 9 9 9 9 9 8 7 7 5 6 5 4 3 5 6 5 6 6 6 6 6 6 6 7 7 7 5 3
10 7 8 8 9 10 10 11 9 8 6 13 12 9 7 7 9 11 12 9 11 7 11 15 5 12 5 9 7 10 11 10 11 12 10 12 12 11 10 10 10 10 9 12 13 13 11 10 9 9 8 8 9 6 6 8 10 9 9 9 10 10 9 8 8 6 7 9 9 9 9 9 9 9 8 7 6 4 5 4 3 3 4 4 4 4 5 5 6 6 6 6 6 7 6 4 2
8 8 7 8 9 10 9 10 11 10 6 7 11 7 6 7 5 6 9 10 5 12 14 11 17 7 7 5 12 16 16 14 11 11 11 13 11 10 10 10 9 7 3 8 11 10 9 10 8 8 7 7 7 6 7 7 9 9 9 10 11 11 11 9 9 8 8 8 8 8 8 8 8 7 8 7 6 4 3 1 4 2 2 3 3 3 4 4 5 6 7 6 6 7 6 4 2
8 7 8 8 10 10 10 9 6 9 3 10 5 9 8 9 8 9 10 6 6 14 17 14 12 11 14 10 21 20 17 13 13 14 13 10 8 8 8 8 8 8 4 4 2 7 9 9 9 7 7 8 8 8 8 8 8 10 8 10 11 11 11 10 9 8 7 6 6 5 4 4 3 4 5 5 9 5 1 4 3 1 1 2 1 2 3 4 4 5 6 7 7 7 6 4 3
7 8 8 9 9 12 9 13 5 5 3 6 4 7 10 9 10 11 6 5 9 15 15 15 16 14 15 15 17 18 16 14 13 13 11 10 8 8 8 8 9 9 7 6 4 5 6 6 8 8 7 9 7 6 6 7 8 9 9 8 6 8 9 9 7 6 7 4 5 4 2 3 3 4 4 5 5 7 4 3 2 1 1 1 1 1 3 4 5 5 6 7 7 7 7 3 2
9 7 9 11 10 10 13 4 6 4 2 5 5 3 5 9 10 7 7 8 11 12 14 16 16 16 14 15 15 16 14 12 13 12 13 12 10 10 8 8 8 10 9 6 5 5 3 4 6 7 8 6 7 5 7 7 9 7 8 7 5 7 8 8 6 7 5 6 4 4 4 4 4 4 4 6 4 8 8 5 3 2 1 1 2 2 4 5 5 6 6 6 7 8 5 3 4
10 9 10 11 14 13 10 4 3 3 6 5 8 8 4 4 13 11 12 13 10 11 12 15 15 15 14 13 14 14 13 11 10 11 12 11 9 8 9 9 9 10 9 7 6 2 3 3 5 7 8 7 5 5 4 7 7 6 6 5 5 5 6 6 6 5 4 4 4 4 3 2 2 3 7 11 6 6 7 6 5 3 3 4 4 3 3 4 6 7 7 6 5 5 5 4 4
8 11 11 11 12 13 6 2 5 5 1 7 6 4 6 6 1 2 11 12 10 8 16 16 18 17 15 14 13 13 13 11 11 9 9 10 9 6 7 6 8 8 10 8 3 7 7 4 5 6 8 7 6 5 3 2 3 4 4 4 5 4 5 6 4 4 2 1 3 2 1 1 3 3 1 3 3 5 5 6 4 3 3 3 6 3 3 4 5 5 4 5 5 6 7 6 6
7 12 14 17 13 10 9 4 8 3 2 4 2 5 11 9 4 7 10 11 7 7 11 15 19 18 17 15 13 13 13 11 10 11 8 8 12 8 7 7 8 8 9 9 6 4 5 4 6 7 7 7 7 4 3 2 5 6 5 3 4 4 5 5 4 6 5 3 3 3 1 1 1 1 3 2 1 1 5 5 6 5 4 4 5 4 4 3 4 4 4 5 6 6 7 7 5
10 10 13 16 15 12 9 2 6 7 5 8 2 5 5 2 5 10 9 5 8 15 9 22 17 18 16 13 14 11 13 11 9 8 8 8 9 9 6 7 9 9 9 9 7 6 8 9 9 8 8 7 6 5 3 2 6 6 4 2 2 3 4 5 5 6 0 4 2 2 3 1 0 2 1 2 1 1 1 2 5 5 5 5 4 5 4 4 4 5 5 5 6 6 8 8 4
11 10 11 13 15 9 12 4 4 2 5 9 11 10 5 6 11 9 12 7 16 19 21 20 20 16 14 14 11 12 12 11 7 6 7 7 7 11 8 8 8 8 11 12 8 8 8 9 9 8 8 8 6 5 4 3 6 5 5 3 0 2 4 4 5 6 2 6 2 2 2 1 1 1 3 3 2 0 2 3 3 4 7 6 5 5 5 4 5 5 5 6 7 8 8 5 2
13 13 13 13 10 11 12 6 2 5 11 11 6 3 9 9 11 10 14 9 13 23 19 17 16 15 14 10 9 10 9 9 7 7 5 7 7 9 8 5 7 9 10 10 9 9 8 8 8 8 8 8 6 5 4 4 6 6 5 3 2 3 3 3 2 5 3 2 3 4 1 2 4 4 3 4 4 4 3 3 3 4 3 0 4 6 5 4 4 5 4 5 6 8 4 3 6
13 13 13 13 12 7 11 9 7 6 7 10 6 7 11 11 9 7 14 11 14 19 20 16 15 15 15 11 8 8 7 6 8 8 6 6 7 8 11 10 9 10 9 9 8 9 9 9 11 10 9 7 7 6 4 5 6 6 5 4 3 3 2 3 4 3 2 3 4 5 4 5 6 2 3 4 4 3 2 2 1 3 4 2 5 6 6 4 5 6 6 6 7 7 3 4 3
9 15 15 15 14 10 9 13 9 9 9 9 12 11 11 11 9 8 15 12 13 18 17 19 16 14 13 13 5 4 8 7 7 5 6 7 7 7 9 9 9 10 10 9 8 7 7 8 8 9 9 9 7 7 5 5 6 6 6 6 5 5 3 4 3 3 4 4 7 7 5 7 5 3 5 4 2 2 2 3 3 0 0 1 3 5 9 7 6 7 8 6 6 4 1 2 2
16 13 14 17 15 13 10 11 11 9 10 13 12 13 13 9 8 9 12 12 10 15 15 16 14 15 12 12 10 8 6 7 8 6 8 8 7 8 7 8 11 10 10 9 6 6 6 8 8 9 9 8 7 5 4 4 5 6 6 5 5 6 6 4 2 6 8 8 8 6 4 3 2 4 5 3 2 2 3 3 3 2 3 2 2 4 5 6 6 8 8 6 5 1 1 5 5
15 10 8 10 14 15 14 12 12 11 10 13 12 13 14 13 13 16 11 13 12 14 15 16 16 14 15 11 8 6 6 8 6 7 7 6 7 6 7 8 10 11 7 9 9 9 8 8 7 8 8 7 7 3 4 4 4 5 5 5 6 6 5 4 6 7 7 7 7 5 6 6 5 6 6 4 4 3 3 2 2 2 3 4 4 4 6 5 6 6 5 4 6 5 5 6 6
14 12 9 12 11 14 16 12 11 13 12 15 10 11 12 15 14 18 12 14 13 14 16 18 15 15 15 14 12 11 9 9 7 7 7 6 7 7 8 7 8 11 8 8 9 9 7 5 5 5 7 6 9 6 5 5 6 4 4 4 4 7 5 5 3 3 5 5 6 6 6 6 6 7 6 6 4 3 1 2 2 2 4 4 2 4 5 5 6 5 6 5 6 6 8 5 3
12 11 10 9 10 11 15 13 12 15 11 13 14 11 10 13 14 18 16 16 14 14 15 16 15 16 14 13 11 11 8 7 7 8 6 7 6 6 8 7 7 10 9 9 10 10 9 7 6 6 7 8 9 8 7 4 5 4 4 6 6 5 7 7 5 1 6 6 5 5 5 6 7 6 5 4 4 5 5 4 3 5 4 4 3 4 5 5 5 5 6 6 4 3 4 4 5
10 10 12 10 12 10 15 17 17 15 12 14 15 12 11 14 14 19 15 15 14 14 13 14 15 13 13 12 10 9 8 8 7 8 7 6 6 7 8 8 7 7 9 9 8 8 9 7 7 8 8 7 6 5 5 5 5 3 3 4 4 5 5 6 6 3 4 6 3 2 6 6 7 7 5 5 5 5 7 7 7 6 5 3 3 3 3 5 5 4 4 4 5 5 4 3 3
11 12 10 12 12 12 12 20 18 19 13 17 18 11 13 12 16 19 15 14 15 13 14 13 15 17 13 10 11 11 9 10 8 8 7 6 6 6 6 7 7 7 6 7 8 8 7 9 9 8 8 6 5 4 6 6 6 6 4 4 4 4 4 8 8 6 5 6 3 3 4 4 4 5 5 6 5 4 4 5 4 5 4 4 4 3 3 3 3 4 5 4 4 4 2 8 4
11 11 11 11 14 12 13 16 18 18 18 14 18 13 15 11 19 18 17 15 16 14 14 13 13 12 15 13 12 11 10 9 8 8 6 5 5 6 7 6 8 7 6 6 7 7 6 5 5 4 9 7 5 5 5 5 4 4 5 4 4 4 4 5 8 8 7 7 4 5 5 4 4 4 4 4 4 2 1 4 4 5 5 4 4 5 4 2 3 4 5 5 1 3 3 4 3
10 10 11 12 13 15 15 12 18 18 19 15 15 16 19 15 16 17 18 16 15 15 12 13 13 13 14 15 11 13 9 8 8 8 7 6 6 6 7 8 8 7 5 6 6 7 6 5 4 5 6 7 7 6 5 4 4 4 3 2 4 3 3 4 5 7 10 7 6 5 6 4 5 5 4 4 3 4 5 4 3 4 3 4 4 4 4 3 3 3 4 6 1 2 3 2 5
14 13 12 13 12 13 15 12 18 19 18 16 17 17 18 21 17 17 16 15 15 13 10 12 11 12 14 11 13 10 10 10 5 9 7 7 6 6 7 7 7 6 6 5 6 6 7 6 5 4 4 4 4 5 4 4 4 4 4 3 3 2 3 4 4 4 4 6 5 6 6 5 5 4 5 4 3 2 4 5 6 5 4 4 4 4 4 5 5 4 5 4 3 2 3 3 5
14 14 14 14 15 12 14 12 18 19 15 16 16 18 18 19 14 17 16 14 11 11 12 11 8 10 14 16 12 14 12 9 8 7 6 6 6 6 6 6 7 7 6 6 7 7 7 7 5 5 4 4 4 4 4 2 4 4 2 2 2 4 3 3 4 3 4 4 6 5 7 5 5 5 5 4 5 6 5 4 4 5 5 4 5 6 5 5 4 4 3 3 3 3 3 6 6
18 12 13 12 15 13 13 14 21 19 12 15 16 16 17 15 13 16 14 14 14 11 12 10 11 11 13 18 17 14 11 7 9 7 6 5 5 5 6 6 7 8 6 6 6 6 6 6 5 5 4 2 2 2 2 3 2 1 1 2 2 3 4 4 5 4 3 3 4 4 4 6 5 5 5 5 5 5 5 5 5 6 5 4 4 5 5 4 3 4 3 3 3 4 2 5 6
19 14 12 12 12 14 11 16 18 18 14 11 17 15 14 16 15 17 14 13 10 10 13 10 9 12 15 17 16 13 13 11 10 9 8 6 6 5 4 4 5 5 5 5 5 6 6 5 4 4 2 4 3 2 1 3 2 2 1 1 1 1 1 2 1 3 6 4 4 4 4 5 5 6 6 6 6 6 6 5 5 5 5 5 6 6 4 5 4 4 4 5 3 2 2 4 7
14 14 12 10 12 12 9 15 17 17 11 10 16 14 11 15 11 14 12 13 11 15 12 11 7 7 17 19 18 16 15 14 12 11 9 9 9 7 6 5 5 4 4 5 3 5 4 4 4 3 3 1 3 2 3 2 3 2 1 1 1 1 2 1 3 2 3 4 4 4 5 7 8 7 8 9 7 7 7 6 5 5 5 6 6 6 6 5 5 4 5 6 4 4 4 4 6
15 16 13 10 14 14 14 8 9 11 13 11 13 12 10 13 10 10 11 12 15 15 12 12 11 9 10 18 15 16 17 14 13 11 10 9 8 8 9 7 5 4 3 4 3 3 3 5 3 3 2 2 1 3 1 1 2 3 2 2 2 1 2 3 2 3 4 5 5 6 6 7 8 7 8 8 8 8 8 7 7 6 6 6 6 6 6 6 5 5 6 6 6 6 5 3 5
14 17 16 14 14 11 19 12 15 10 11 13 13 10 11 12 13 13 12 12 12 11 9 10 11 10 15 21 18 16 14 13 13 12 11 9 8 7 8 8 6 5 3 3 3 3 3 3 3 1 1 1 1 2 2 2 3 3 3 3 4 4 4 5 5 4 4 5 5 6 7 7 8 7 7 7 7 7 7 7 7 7 6 7 6 7 6 4 6 6 7 7 6 5 3 3 3
13 13 17 19 15 12 12 19 13 10 11 14 16 12 7 11 15 16 14 9 9 8 8 7 7 7 11 12 13 12 13 11 12 11 10 11 9 9 8 7 7 6 5 4 4 5 5 4 2 0 1 1 0 2 2 2 3 3 3 3 3 3 2 1 1 2 3 3 4 5 5 7 7 7 6 7 6 6 7 7 8 7 7 6 6 6 7 8 8 8 5 4 5 2 1 6 8
13 9 16 19 18 16 14 19 12 7 7 9 17 14 9 12 14 18 18 16 16 13 13 13 13 12 14 12 11 10 9 10 10 10 9 9 7 7 8 6 6 5 5 5 4 3 4 2 2 1 1 2 1 1 2 3 3 3 3 2 2 4 3 2 1 3 2 3 4 5 4 4 5 6 7 7 7 7 6 7 7 7 7 7 6 7 7 7 6 5 6 7 4 5 7 8 4
11 12 16 18 17 15 15 14 11 10 10 11 13 19 12 10 11 15 18 18 17 18 16 15 14 13 16 14 12 10 6 7 10 9 10 11 9 8 8 7 6 5 4 5 5 3 2 1 2 2 2 2 2 3 2 2 3 3 3 2 2 3 3 2 1 1 2 5 6 6 4 4 4 5 5 6 6 6 6 7 7 7 6 6 7 7 7 7 8 7 6 5 5 4 4 3 3
16 13 13 12 16 15 14 10 14 11 9 11 14 16 11 10 9 11 12 15 16 17 16 13 10 9 16 15 13 12 6 5 13 12 11 11 9 8 7 7 6 3 3 3 3 2 1 1 2 3 3 3 2 2 2 3 4 3 3 3 4 4 3 2 1 1 3 2 3 1 0 1 2 3 4 6 6 7 6 7 7 6 7 8 6 7 8 8 8 7 7 6 5 4 4 5 5
11 17 13 13 15 11 10 12 11 9 9 12 15 17 13 9 11 13 13 14 12 13 10 6 4 12 11 14 13 9 9 9 10 11 11 10 8 7 5 7 6 3 2 3 3 3 3 3 3 3 3 2 2 2 3 4 3 3 3 3 5 4 4 4 2 4 4 4 3 3 2 2 2 4 4 5 6 6 6 5 5 6 7 7 7 7 7 7 7 7 7 8 8 9 6 7 6
15 12 12 10 11 8 8 9 8 6 9 14 16 16 21 12 8 10 12 13 15 16 16 15 6 13 11 10 13 11 12 12 11 11 11 10 8 7 7 7 5 4 3 3 2 2 1 1 1 2 2 2 2 2 2 3 4 4 3 3 4 5 4 4 3 4 5 5 7 6 2 2 3 5 5 4 4 5 4 4 4 5 6 6 7 6 7 7 7 7 6 7 8 8 7 5 5
15 14 13 11 9 6 8 8 9 11 9 13 18 18 15 16 2 13 14 17 15 20 18 15 14 14 13 12 12 11 10 11 10 9 9 8 7 7 6 6 5 3 4 3 3 2 0 1 3 3 3 3 3 3 3 4 3 3 4 4 5 4 5 3 6 5 3 4 5 6 5 5 4 5 6 5 3 7 6 4 4 5 6 7 7 7 7 7 7 7 8 8 8 8 8 9 7
16 17 14 13 12 11 8 11 6 8 11 12 13 17 13 7 7 11 10 18 20 18 19 18 15 14 13 11 10 11 10 9 9 9 8 8 6 5 5 6 6 5 5 4 4 3 3 3 4 5 4 3 4 3 4 4 4 4 4 5 4 3 4 4 3 4 5 4 4 6 6 5 6 7 4 5 5 5 7 7 7 6 6 7 6 7 7 7 7 7 8 8 8 8 8 8 8
16 16 16 14 14 9 8 10 9 10 8 11 14 12 7 9 7 9 16 17 19 16 15 16 17 15 14 13 12 11 10 9 9 9 8 7 6 6 5 5 5 5 6 5 5 6 5 5 6 7 6 6 6 6 5 5 5 4 4 4 4 3 4 3 4 4 4 4 4 5 6 6 6 6 3 1 3 6 7 8 6 6 5 6 7 8 7 7 7 7 6 6 6 6 8 8 7
14 14 14 13 11 8 10 6 8 9 9 9 11 1 9 10 9 10 14 15 16 18 20 19 16 14 13 12 11 8 8 9 9 9 8 8 7 6 5 5 6 6 7 6 7 5 5 5 6 5 6 6 6 6 6 6 6 5 5 4 4 4 3 5 5 4 4 3 4 5 7 6 5 4 2 4 3 3 2 8 9 7 4 7 7 8 7 7 8 7 5 5 6 6 7 9 8
13 15 16 14 11 13 4 5 9 2 3 8 4 7 9 9 7 5 13 17 17 16 18 17 15 14 13 11 9 8 9 8 8 8 7 7 7 7 6 6 5 6 6 5 5 5 5 5 5 6 6 6 7 7 6 6 5 5 4 4 4 4 4 5 5 6 6 5 4 2 4 6 5 4 5 5 5 4 3 7 9 8 6 4 7 9 8 8 8 7 7 7 7 7 5 7 7
10 14 15 13 14 14 7 7 5 6 6 5 11 12 11 11 5 10 5 13 14 14 14 15 14 13 13 10 7 8 8 8 9 9 8 8 7 7 7 6 5 5 5 4 4 3 3 3 4 4 4 5 6 7 7 6 6 6 5 5 5 5 5 5 6 5 4 5 5 4 3 3 5 4 3 4 4 4 5 6 5 7 9 10 10 8 8 8 8 7 8 7 7 7 6 4 5
13 14 11 13 8 13 11 3 8 9 7 5 13 13 9 11 9 12 14 16 15 16 16 15 15 14 13 11 9 8 9 8 8 8 8 7 7 6 6 7 6 5 4 4 5 3 3 3 3 3 5 4 4 5 5 6 5 5 5 6 7 7 6 6 6 5 5 6 6 5 4 3 4 5 5 4 4 5 6 4 6 8 9 8 8 8 8 7 7 8 7 6 6 7 7 7 6
18 14 15 14 9 11 7 5 6 8 7 6 12 15 5 11 12 20 20 18 18 17 16 16 15 15 12 10 9 8 8 8 8 8 8 8 7 7 7 6 6 6 5 4 4 3 4 4 4 5 5 6 6 7 6 5 5 5 6 6 6 7 8 8 8 7 6 6 6 6 7 6 6 6 5 5 5 6 5 5 7 10 7 7 6 7 7 7 6 6 8 6 5 6 7 6 6
15 13 12 12 8 8 11 9 12 9 7 9 6 9 6 4 13 20 22 21 20 19 17 15 14 14 13 11 9 8 9 8 8 9 8 8 7 7 6 6 6 5 4 5 5 5 5 4 5 6 5 5 6 6 6 6 7 6 6 7 7 7 8 7 8 8 7 6 6 5 5 5 6 6 7 5 5 5 7 4 4 6 10 10 7 5 4 3 6 7 7 6 5 7 6 6 6
15 14 13 14 15 13 14 11 12 11 9 6 8 5 7 6 6 10 19 18 19 18 18 15 15 15 12 10 10 10 9 9 8 7 7 7 7 7 7 6 6 5 3 5 4 4 5 4 3 4 6 7 7 6 7 6 6 7 8 8 8 7 7 7 8 7 7 7 7 6 5 5 5 6 4 7 5 3 3 6 6 7 5 6 9 6 9 8 7 7 6 7 9 7 5 6 7
Wind_Direction
264 246 247 243 240 261 278 229 253 200 225 244 254 250 257 253 268 269 259 191 224 268 100 17 200 354 320 16 87 72 35 40 14 15 87 124 106 114 115 115 119 120 122 122 128 133 134 123 123 120 124 128 127 124 124 126 127 126 125 123 123 123 124 123 124 124 124 125 126 127 123 118 123 120 110 107 110 107 110 114 116 116 115 114 112 109 107 104 100 94 90 87 85 84 83 87 90
251 250 240 243 253 261 235 213 244 265 241 243 242 255 262 258 244 243 266 345 34 66 49 50 61 341 11 285 94 81 59 66 65 87 101 113 128 125 124 116 118 122 127 130 136 139 134 132 124 119 116 118 120 121 123 125 125 124 123 123 123 124 125 124 126 128 126 127 129 130 123 124 129 122 112 111 111 108 107 118 117 116 115 113 112 112 106 103 101 98 95 95 93 93 91 91 94
264 268 245 229 241 238 284 248 243 241 248 255 261 259 251 248 246 230 252 255 80 98 136 62 36 92 195 232 132 78 92 88 88 96 99 118 116 130 121 118 119 125 125 138 139 135 128 137 128 124 120 121 121 123 123 123 122 122 124 125 125 127 126 127 128 130 133 132 135 133 129 129 132 124 111 107 108 113 115 111 116 117 114 116 113 106 104 103 103 100 98 96 97 95 93 94 96
282 273 271 242 252 207 237 235 249 253 254 259 271 252 253 278 224 87 47 63 66 328 49 41 261 68 13 66 100 95 88 79 100 117 124 128 115 135 120 120 120 125 135 141 137 134 132 134 130 125 120 121 123 123 124 123 123 123 124 125 127 127 127 127 131 133 131 136 140 135 133 136 131 116 102 105 110 108 111 115 116 116 112 107 109 106 104 106 104 103 102 100 97 96 96 93 94
266 260 249 254 268 240 226 237 244 237 247 253 258 261 317 272 353 95 80 46 50 323 7 221 229 98 73 41 54 71 89 86 83 87 98 102 126 118 118 122 125 129 140 144 130 134 130 138 129 126 123 119 123 124 124 125 125 124 127 128 128 128 128 130 133 133 134 138 138 138 135 131 124 112 106 105 106 109 117 116 114 111 108 103 98 105 106 105 102 102 104 100 96 96 95 97 96
248 258 236 246 235 344 289 248 232 240 247 254 253 260 267 32 43 69 83 168 40 316 141 186 241 137 62 60 45 55 356 93 113 104 116 129 128 123 122 128 129 138 141 134 122 130 141 132 131 126 124 123 124 125 127 131 130 133 131 130 131 130 132 133 135 138 140 141 139 137 134 131 125 114 106 106 108 116 115 114 108 109 108 107 103 101 100 96 98 100 102 100 100 98 95 96 99
240 235 208 220 259 259 254 245 251 248 235 235 256 263 33 150 76 16 127 129 115 248 191 219 218 105 105 112 69 44 33 123 114 113 115 127 127 127 128 133 138 137 131 127 133 138 137 130 128 127 129 129 128 131 134 135 139 137 138 135 134 135 135 137 139 140 144 141 138 134 131 129 123 108 104 106 111 116 116 117 115 112 109 109 108 100 94 93 93 96 103 105 101 101 100 98 99
251 272 215 213 236 205 233 250 254 254 253 227 233 260 34 94 101 167 294 216 150 241 155 247 235 121 102 102 90 65 63 59 90 106 114 130 134 118 126 129 134 132 128 127 128 119 125 129 129 131 132 134 137 138 141 142 140 143 143 140 138 136 138 141 139 136 135 136 133 130 125 122 116 107 107 112 117 119 120 119 121 116 104 99 95 89 85 92 96 103 110 110 110 108 103 100 95
238 233 263 260 242 238 238 237 242 243 261 275 276 72 51 28 52 360 280 235 169 225 163 225 191 168 101 85 90 77 66 94 95 101 116 127 128 129 128 140 134 126 123 115 106 117 136 128 131 132 136 140 143 147 148 146 145 145 144 143 137 137 138 140 142 135 128 126 126 124 122 119 110 107 108 115 120 124 124 120 116 109 93 96 91 85 85 91 95 104 114 115 113 108 107 104 108
238 228 213 236 248 244 244 240 239 236 249 246 220 260 205 194 239 256 288 248 175 247 159 221 172 93 115 106 109 89 107 101 113 113 122 130 126 127 130 124 123 121 100 105 116 128 140 138 131 135 141 143 145 146 146 146 147 146 143 136 132 135 140 142 133 129 117 103 99 113 112 116 108 107 117 120 121 119 119 115 106 100 102 97 87 84 88 88 95 104 115 118 113 111 110 115 106
235 203 259 258 239 248 247 242 239 234 241 245 248 86 19 159 220 235 215 251 167 221 203 184 180 126 110 85 81 101 102 116 121 121 127 129 128 126 126 125 123 116 113 116 124 126 135 142 137 137 139 142 141 141 140 142 141 135 130 129 132 138 143 126 126 121 104 104 105 101 111 114 112 117 118 122 119 121 117 113 117 107 103 92 84 84 92 96 93 106 115 111 109 110 112 113 99
248 224 198 238 247 245 238 253 251 241 230 226 205 211 153 242 251 246 202 237 201 191 214 175 194 116 108 111 118 122 122 123 119 127 127 128 129 128 127 124 109 110 118 122 122 126 139 140 145 144 137 136 137 138 141 137 129 126 132 134 131 128 122 114 111 118 116 93 104 104 110 119 119 117 116 116 121 123 123 118 117 104 98 89 83 87 94 104 99 97 108 114 110 110 113 108 93
251 242 220 236 247 247 258 257 253 272 236 181 330 208 137 207 213 218 231 231 201 198 200 172 112 127 118 101 120 120 118 127 132 131 125 125 130 130 115 116 109 122 120 122 123 129 137 146 147 150 146 138 130 131 138 130 122 121 124 120 118 107 116 114 121 114 105 98 109 114 116 117 122 122 116 121 124 127 130 120 117 99 91 83 84 85 97 108 112 112 114 116 113 109 108 107 99
238 239 253 241 242 259 264 260 265 267 258 25 197 102 94 195 229 219 238 215 195 221 137 131 83 87 99 109 133 138 129 138 137 127 126 127 117 111 114 117 124 126 121 124 127 133 143 143 141 152 152 146 140 128 121 120 116 115 117 119 112 110 117 108 102 101 104 101 112 114 120 121 122 122 122 120 128 113 107 129 118 93 84 81 85 89 102 114 124 125 122 120 115 109 109 107 101
244 241 256 275 274 263 247 257 267 256 260 231 109 141 154 212 217 218 224 202 208 230 178 70 101 120 150 137 157 151 145 148 143 131 130 115 111 116 119 118 125 111 115 129 133 138 142 139 148 142 152 146 135 132 135 113 110 115 124 124 116 115 114 124 121 119 121 120 120 119 124 123 127 129 129 124 94 96 128 117 88 83 84 80 81 101 109 125 130 137 130 123 120 115 109 114 121
242 255 249 256 252 254 250 246 248 293 260 85 117 165 200 199 246 248 232 238 120 58 31 71 55 66 158 203 154 138 142 147 143 128 127 117 114 123 125 123 98 91 143 124 142 138 133 142 142 146 148 143 134 129 128 134 119 123 134 135 124 122 125 132 132 130 129 122 121 119 126 131 137 140 140 129 120 91 158 199 94 57 65 66 74 106 133 135 145 146 137 130 128 122 121 125 162
243 254 264 244 252 241 256 265 232 224 80 111 146 179 208 197 172 238 231 206 132 81 79 65 66 67 63 90 118 129 142 138 139 132 127 125 124 129 136 134 128 133 99 45 61 128 136 141 143 142 146 134 139 136 137 139 135 136 138 136 134 133 128 125 125 120 112 119 124 116 140 155 172 149 163 170 142 151 101 74 117 99 58 8 70 120 145 157 157 154 152 142 140 136 137 154 189
223 233 239 246 244 239 239 249 227 70 97 57 252 161 215 181 172 217 231 201 109 92 87 86 83 80 92 101 115 128 135 140 145 136 141 140 146 146 150 144 148 137 141 126 81 78 117 134 143 144 141 139 144 140 135 144 149 167 165 152 145 135 128 127 136 148 154 147 155 149 182 202 190 185 185 150 185 145 133 145 127 187 3 314 284 183 152 167 173 176 170 159 152 149 157 177 209
232 226 234 243 230 249 262 11 328 24 179 88 44 310 217 215 161 173 206 213 178 127 111 108 102 103 99 107 123 130 141 142 149 155 154 153 154 154 151 145 142 141 133 120 104 100 88 119 112 127 128 107 102 109 143 144 158 174 162 155 152 146 149 147 156 163 169 152 162 180 207 216 201 184 174 162 200 159 135 155 164 180 223 249 253 233 169 171 182 190 189 177 173 172 193 201 211
222 248 229 235 254 249 244 108 10 31 17 144 199 213 252 74 188 145 218 205 167 176 136 128 123 123 124 130 133 139 141 147 158 159 162 152 152 152 151 153 146 143 128 102 124 138 209 157 128 117 116 111 116 121 121 156 162 170 152 147 146 148 151 163 168 167 152 156 174 174 215 251 249 159 200 184 176 128 130 149 170 196 199 233 219 210 196 189 191 195 201 201 200 202 225 194 203
187 229 241 241 227 252 258 282 42 17 325 26 2 155 251 168 271 167 207 201 206 194 152 148 142 140 136 141 143 142 147 156 152 165 167 151 146 149 154 141 147 135 120 101 132 170 177 150 133 131 127 129 130 117 111 149 142 87 54 103 124 134 159 157 149 100 90 146 188 103 64 329 357 356 184 178 148 152 150 155 172 185 187 204 200 230 201 196 194 200 202 212 222 223 232 216 182
241 221 238 253 271 294 327 290 183 219 39 291 29 210 232 180 241 247 210 220 197 209 164 153 135 138 142 144 143 147 150 153 158 161 162 153 147 160 133 136 115 94 108 122 171 163 129 156 140 136 141 140 136 136 143 163 72 77 66 84 153 157 156 126 96 57 339 359 358 5 46 349 54 89 6 19 360 145 165 177 172 176 192 209 174 232 217 193 206 209 203 210 227 226 233 254 182
241 235 241 247 255 286 293 195 273 160 143 245 264 246 22 128 205 256 241 228 50 19 142 112 121 132 134 139 144 153 154 156 164 156 155 146 146 118 126 130 136 137 129 137 164 165 160 164 154 145 143 127 107 114 156 154 84 89 101 130 191 154 93 99 98 81 245 307 349 339 291 308 3 122 168 243 221 139 273 214 188 180 182 202 172 214 227 211 214 213 202 213 229 236 236 235 167
239 248 235 244 258 264 267 354 152 158 246 228 244 50 274 201 234 211 229 151 92 82 95 116 122 124 131 134 156 157 159 154 157 151 142 139 139 133 145 140 130 128 124 137 158 157 158 157 154 146 138 124 139 165 171 141 109 118 130 119 235 121 99 97 104 126 193 196 196 247 264 98 276 253 198 199 178 324 255 267 288 221 186 190 168 211 235 222 208 239 207 212 229 237 238 221 182
226 239 257 266 244 224 256 227 225 184 222 254 259 242 224 228 247 168 234 130 101 97 99 99 113 119 117 143 167 160 154 148 153 136 132 144 126 126 117 93 116 123 123 136 145 145 152 147 147 154 134 133 138 174 183 129 115 123 133 167 191 111 71 79 64 106 175 159 190 234 239 216 214 225 232 190 170 183 225 260 294 311 326 86 146 206 241 233 219 242 224 225 227 242 258 49 238
226 242 237 254 265 263 231 227 219 197 221 221 226 232 224 227 248 257 215 142 131 112 113 115 122 132 141 146 175 161 147 155 139 138 154 120 129 133 127 140 124 108 121 132 137 146 153 159 156 146 145 137 152 175 186 139 128 141 156 163 145 147 124 83 114 81 273 208 212 208 179 235 229 179 242 233 178 166 179 241 248 277 291 46 53 345 288 248 241 243 247 227 236 232 115 242 272
220 222 239 243 243 237 244 247 211 219 229 206 226 212 225 220 165 218 220 151 167 119 125 131 138 138 135 150 140 183 152 151 144 139 145 137 141 133 130 133 119 122 127 131 138 140 141 151 146 143 145 151 161 179 166 145 150 163 165 154 161 143 129 85 87 89 236 212 215 207 192 217 250 222 221 238 200 147 161 216 243 152 78 307 117 173 268 257 237 241 244 231 238 251 123 226 231
254 247 219 227 250 249 241 224 236 215 217 228 216 225 221 190 191 226 185 141 158 152 141 145 144 139 140 130 155 162 157 147 144 161 145 142 151 140 138 117 117 118 122 127 133 143 149 155 146 142 140 152 156 166 137 158 161 153 151 152 145 106 87 102 137 196 217 213 209 196 191 198 255 248 247 223 175 157 164 192 211 201 181 238 191 177 235 269 258 242 244 229 230 251 50 261 230
245 235 269 252 226 244 234 226 215 216 217 219 207 233 217 190 203 233 173 146 173 165 153 147 150 148 133 145 143 130 186 155 162 162 150 145 131 133 126 122 125 123 124 135 142 145 154 146 142 142 137 153 120 154 172 158 166 146 161 174 139 121 146 176 207 204 203 206 202 176 183 190 200 222 228 245 208 166 157 153 159 208 211 198 229 210 245 264 271 269 268 235 233 85 271 248 229
251 242 223 237 240 228 227 232 211 212 221 200 200 227 214 200 197 223 200 158 175 183 166 157 155 144 141 147 157 178 171 157 172 156 135 125 127 133 121 125 116 120 138 131 135 142 143 141 140 139 134 136 142 180 194 170 159 158 172 134 117 139 138 185 220 258 237 186 160 148 178 192 205 216 200 207 192 136 178 214 166 231 231 225 211 220 237 253 262 265 270 241 241 151 219 251 267
234 234 230 246 239 232 209 217 200 221 205 184 200 231 213 194 183 218 213 162 181 197 177 179 165 156 150 151 170 160 153 148 165 137 137 121 132 123 124 119 119 124 132 141 143 149 146 141 142 138 147 162 158 169 182 146 136 167 173 153 164 176 162 155 157 264 278 267 121 138 186 196 218 229 211 198 183 147 194 216 196 219 224 221 206 211 227 250 259 258 260 250 245 238 195 215 249
221 225 222 221 241 238 210 197 201 216 187 212 199 227 229 187 186 219 209 162 182 202 177 186 157 147 156 159 139 142 155 146 125 137 110 126 123 125 123 126 113 114 127 131 134 125 128 135 141 140 153 142 150 161 153 150 148 152 207 168 158 173 159 123 101 144 242 261 97 143 193 201 208 208 201 202 209 179 179 206 178 197 206 174 204 215 217 231 247 266 294 286 245 227 233 192 294
212 224 222 224 219 243 233 190 194 204 206 204 208 214 232 206 183 220 175 168 179 203 183 193 163 161 161 149 148 154 161 135 154 139 125 118 128 124 119 128 127 108 111 123 118 117 143 140 145 151 136 133 141 177 163 157 153 161 185 194 164 163 170 125 138 150 213 268 220 192 203 201 213 207 204 195 196 186 190 189 171 176 184 191 187 209 226 219 231 254 268 277 344 306 294 46 311
212 204 235 228 221 217 249 174 189 190 216 198 199 223 226 224 179 205 160 176 180 212 190 194 169 164 159 160 159 141 146 151 145 129 115 116 121 121 121 115 97 98 96 102 122 129 121 117 120 133 138 145 154 186 162 163 158 163 184 196 161 179 171 143 145 155 180 215 226 204 193 199 217 207 207 208 193 126 85 245 188 189 178 185 188 196 222 210 223 231 269 281 57 79 112 139 144
206 199 215 231 232 227 232 198 172 189 207 209 189 221 241 241 191 185 158 182 187 210 198 194 183 162 152 146 161 140 138 126 130 132 132 119 125 121 116 116 112 114 115 118 121 123 120 113 126 133 134 144 158 176 161 180 161 184 196 174 151 162 162 155 164 154 176 185 191 185 179 189 201 211 210 205 179 179 192 238 232 197 173 182 192 203 212 211 231 229 234 274 64 82 120 102 82
217 202 212 227 229 218 234 200 166 188 193 208 187 217 234 241 238 164 158 185 194 195 206 228 165 159 149 144 132 137 128 108 147 133 132 138 144 139 132 133 126 125 131 140 130 132 124 126 134 142 121 136 148 161 163 171 178 179 199 170 195 179 171 169 173 168 152 175 180 178 166 183 197 188 208 198 147 202 221 190 212 196 194 187 198 204 209 210 207 215 237 239 267 184 186 119 124
222 214 211 223 233 226 229 193 168 178 197 207 197 222 232 246 204 143 161 188 200 203 198 247 151 165 133 117 112 100 109 146 140 122 129 145 154 141 132 133 126 131 143 144 140 139 143 141 143 128 129 156 176 168 182 183 184 172 184 186 199 177 179 175 167 155 185 170 186 174 168 177 189 187 200 187 155 206 209 207 205 203 194 194 208 216 217 216 197 203 219 192 217 245 195 132 149
251 229 218 218 227 236 211 212 164 170 204 194 214 215 231 238 155 165 177 182 199 197 203 218 182 172 142 119 125 117 129 121 128 131 138 145 149 136 126 129 136 144 151 150 143 138 138 131 128 128 146 151 133 117 137 144 235 252 160 158 163 183 168 175 173 169 165 188 177 169 170 172 178 186 177 178 195 184 206 199 204 201 198 200 220 230 228 221 192 200 198 195 193 212 215 153 150
247 253 218 219 224 245 209 228 168 163 196 202 202 217 227 226 192 156 184 182 177 196 212 194 197 176 121 128 126 127 131 136 138 142 148 131 120 113 120 122 135 132 140 135 134 133 130 127 148 134 139 151 136 105 252 179 80 65 352 29 303 310 119 114 331 149 159 163 183 182 170 162 186 187 182 177 188 189 196 201 205 198 194 197 205 221 220 222 220 215 205 205 185 199 180 170 169
242 245 253 217 222 215 217 225 180 165 186 200 187 209 231 227 209 152 183 164 179 204 203 173 185 201 132 140 142 138 141 140 147 154 156 150 141 133 116 117 107 113 121 125 138 135 131 127 124 124 133 181 124 121 327 15 73 55 210 221 267 228 307 127 151 184 157 168 180 184 184 187 194 197 189 193 186 186 187 198 204 203 201 201 201 208 204 210 213 226 226 222 195 187 193 191 190
231 242 238 237 224 206 240 161 148 154 181 242 182 210 214 235 146 174 155 180 199 201 184 185 195 211 155 127 136 141 143 147 149 156 147 153 153 150 133 129 128 145 137 131 133 129 125 120 129 135 142 144 164 126 209 300 113 186 202 220 209 217 203 232 204 187 178 180 188 190 200 192 198 204 204 201 188 181 181 189 197 202 201 201 203 212 210 209 202 205 225 221 205 206 196 174 180
226 230 238 239 237 207 220 151 164 162 190 202 226 193 214 216 184 174 161 200 198 170 178 186 180 190 117 135 141 148 142 144 146 152 152 154 139 141 134 144 154 147 138 120 120 114 106 105 111 96 92 96 122 155 184 203 220 233 209 206 210 197 210 191 192 190 169 187 199 193 193 200 196 206 209 210 209 178 178 183 192 193 196 204 202 205 207 195 225 218 211 202 209 206 207 167 198
225 210 231 245 255 231 213 145 169 185 203 183 224 232 189 214 216 170 173 168 166 157 183 181 202 190 132 121 132 135 139 144 146 149 148 132 135 137 137 143 148 131 97 92 101 95 92 104 103 114 359 26 65 267 193 212 241 243 251 260 272 271 278 286 112 129 126 155 216 215 198 194 198 195 204 210 212 195 181 186 190 192 196 193 181 192 198 193 199 202 184 207 215 140 212 231 208
224 202 216 237 252 246 212 151 181 193 199 215 216 218 244 197 225 171 168 176 182 195 192 198 194 195 113 92 73 88 120 127 131 145 140 132 126 127 119 95 98 104 113 105 96 94 110 137 118 242 327 288 234 215 234 225 256 235 239 237 264 286 276 286 73 109 136 183 220 212 189 197 209 209 198 210 207 201 195 194 189 193 192 184 183 200 207 197 192 192 189 195 191 191 210 225 220
225 211 214 225 237 246 255 204 173 199 184 218 217 212 232 237 198 199 171 195 194 196 202 194 190 185 120 122 132 121 95 126 124 117 97 95 98 88 82 87 87 86 87 95 92 88 98 138 197 219 228 237 227 238 267 261 258 286 293 289 254 231 256 255 184 272 212 214 214 215 200 204 200 212 228 217 214 213 197 197 204 192 202 201 187 190 202 200 200 190 174 159 184 192 179 187 253
218 231 210 219 229 241 255 251 218 185 206 213 218 204 227 227 208 203 195 217 200 200 190 181 175 172 128 121 115 110 94 43 96 97 101 102 99 97 97 100 85 71 92 120 133 136 149 228 205 228 223 230 226 224 227 256 263 268 278 281 285 304 316 304 344 188 249 254 265 275 313 290 260 226 225 238 220 217 206 201 197 193 197 203 199 198 197 197 200 193 181 160 164 198 186 191 213
205 231 229 208 225 227 252 268 226 187 214 227 222 196 212 231 224 199 203 208 189 184 144 90 143 103 93 105 115 121 140 171 114 111 106 103 100 103 112 106 118 138 140 113 114 160 162 199 217 229 225 233 240 239 267 274 266 249 258 275 291 301 294 288 267 289 303 301 271 245 228 211 245 259 227 218 230 223 214 202 202 194 198 207 199 192 196 192 196 189 177 176 185 191 186 189 183
210 220 226 189 219 212 234 255 227 207 213 211 229 217 191 229 228 231 198 171 197 147 119 117 213 129 131 126 136 147 138 116 115 113 109 104 107 111 117 114 120 125 111 117 129 90 149 247 268 258 243 287 238 241 225 236 260 283 273 273 270 263 281 328 335 289 288 294 298 294 268 229 222 240 250 230 211 238 230 211 212 209 193 200 205 198 193 195 192 184 169 168 176 184 174 172 179
202 217 219 200 188 187 219 223 221 219 221 199 213 225 190 203 349 332 169 184 138 114 127 136 139 121 114 115 112 109 110 117 117 113 109 111 113 112 106 116 120 111 105 108 93 86 75 45 325 338 341 332 325 318 303 304 286 256 255 262 267 292 286 263 275 270 264 269 276 286 289 275 253 235 240 258 358 314 294 271 237 219 213 205 207 200 199 198 185 180 172 174 179 179 177 173 177
198 211 211 209 195 186 211 210 230 231 225 232 209 229 238 112 32 21 72 89 107 117 125 132 125 127 124 115 110 100 94 98 98 102 97 88 84 91 96 94 93 89 77 71 72 54 39 27 10 7 352 343 343 323 314 306 300 305 320 315 324 334 315 298 255 241 263 262 264 270 270 265 273 270 297 345 319 279 263 232 218 227 229 226 208 204 196 198 192 189 180 179 183 176 166 160 158
201 212 216 223 212 193 195 205 206 212 219 215 237 224 173 125 116 82 96 113 112 121 111 107 100 104 105 100 98 98 102 105 102 96 94 92 86 84 90 88 90 83 73 65 54 36 30 32 11 8 358 355 351 340 335 332 331 329 331 323 325 340 316 294 278 269 253 259 273 276 278 276 275 287 35 5 350 313 285 286 266 235 214 234 230 213 196 193 193 189 180 180 182 172 162 159 160
201 210 223 227 210 192 212 197 220 202 213 206 228 239 18 106 105 93 113 111 112 103 105 109 112 118 116 109 103 105 111 119 119 110 107 108 104 105 92 75 70 61 61 54 44 35 35 30 17 10 358 352 349 346 345 335 329 335 335 327 331 321 324 314 308 304 300 273 262 271 285 288 299 311 358 300 250 240 302 285 284 278 257 234 227 217 199 194 187 179 178 190 188 193 170 164 161
179 207 214 217 197 216 189 176 240 290 246 218 196 87 104 105 58 29 95 103 103 107 112 119 122 125 120 109 115 122 117 113 100 101 103 105 99 84 77 76 68 63 63 56 44 34 29 37 20 359 5 359 353 351 344 338 335 327 327 324 318 310 305 301 301 298 292 291 292 284 293 290 284 280 273 268 279 263 227 249 251 261 260 240 249 231 209 199 180 178 185 191 190 190 177 166 160
182 213 212 194 202 228 210 209 174 231 236 219 206 137 150 153 156 161 201 122 124 118 120 124 125 122 114 116 112 120 117 115 117 119 121 119 113 102 99 89 88 93 100 100 97 101 63 52 27 1 9 6 2 351 339 338 340 334 330 332 328 315 305 293 284 285 298 300 292 277 259 281 299 302 262 266 257 263 277 260 287 283 254 236 229 232 223 202 186 182 189 190 182 174 172 177 173
218 203 205 205 173 211 212 206 194 202 217 225 215 141 169 182 146 163 164 156 147 143 138 136 136 128 125 124 119 115 123 124 129 131 126 121 108 110 104 101 96 90 76 77 81 67 86 82 66 13 11 8 2 346 339 333 345 340 342 337 329 323 318 316 316 324 332 316 315 318 316 301 299 282 273 273 280 269 253 251 240 253 257 242 238 234 230 211 191 181 190 183 178 180 181 175 177
228 213 203 206 216 214 215 198 210 203 212 219 223 158 191 181 160 169 167 164 156 150 146 143 137 136 135 131 132 131 127 126 128 126 120 112 114 108 108 105 100 98 101 92 76 62 53 34 35 35 16 11 6 353 340 339 347 341 336 329 329 329 331 332 333 340 340 329 324 328 327 317 305 301 272 259 263 268 249 216 244 260 271 268 246 240 215 207 189 186 180 189 196 189 179 171 168
199 209 200 190 230 208 235 196 218 199 215 208 235 214 150 357 169 170 170 165 161 153 148 136 136 135 135 133 135 131 127 125 124 118 111 112 109 109 106 104 84 78 92 91 70 57 40 33 28 32 11 16 17 355 344 349 337 340 339 337 336 337 331 331 337 335 330 325 325 327 324 311 308 297 294 286 275 298 319 302 257 258 273 269 253 235 248 231 200 195 181 192 164 219 188 177 166
199 208 206 203 205 208 205 217 204 214 213 205 204 222 72 351 5 180 163 153 148 144 134 133 137 132 132 126 120 120 115 113 111 109 119 115 109 111 118 111 101 98 88 88 99 78 61 43 27 37 24 22 7 355 354 357 348 347 352 339 336 336 337 337 335 327 324 331 327 330 330 322 309 300 299 314 304 302 291 321 292 275 282 296 279 242 225 233 210 198 184 184 196 185 205 184 178